When you browse on this site, cookies collect data to enhance your experience and personalize the content and advertising you see.
Visit our Privacy Policy to learn more. By continuing to use the site, you agree to this use of cookies and data.
  • Em Portugal
  • Lista de países
  • Para 7 dias
  • Temperatura da água
  • Mapa do tempo
  • Widgets de tempo
  • user-avatar
    Iniciar Sessão

    Previsão horária em El Guna

    Hoje, 15 Outubro, Terça-feira

    Tempo Temperatura Precipitação Vento Pressão Humidade
    00:00 +27°C° 0 mm 1 m/s 733 mmHg 50%
    01:00 +26°C° 0 mm 1 m/s 732 mmHg 50%
    02:00 +26°C° 0 mm 1 m/s 732 mmHg 50%
    03:00 +26°C° 0 mm 1 m/s 732 mmHg 50%
    04:00 +26°C° 0 mm 1 m/s 732 mmHg 49%
    05:00 +26°C° 0 mm 1 m/s 732 mmHg 48%
    06:00 +28°C° 0.1 mm 1 m/s 732 mmHg 44%
    07:00 +29°C° 0.1 mm 2 m/s 733 mmHg 39%
    08:00 +31°C° 0.1 mm 2 m/s 733 mmHg 35%
    09:00 +34°C° 0 mm 2 m/s 733 mmHg 31%
    10:00 +35°C° 0 mm 2 m/s 734 mmHg 28%
    11:00 +37°C° 0 mm 2 m/s 734 mmHg 24%
    12:00 +38°C° 0 mm 2 m/s 733 mmHg 23%
    13:00 +38°C° 0 mm 2 m/s 733 mmHg 22%
    14:00 +39°C° 0 mm 2 m/s 732 mmHg 21%
    15:00 +37°C° 0 mm 2 m/s 732 mmHg 25%
    16:00 +35°C° 0 mm 2 m/s 731 mmHg 30%
    17:00 +34°C° 0 mm 2 m/s 731 mmHg 35%
    18:00 +32°C° 0 mm 2 m/s 731 mmHg 36%
    19:00 +30°C° 0 mm 2 m/s 732 mmHg 38%
    20:00 +29°C° 0 mm 2 m/s 732 mmHg 40%
    21:00 +28°C° 0 mm 2 m/s 732 mmHg 40%
    22:00 +28°C° 0 mm 2 m/s 733 mmHg 40%
    23:00 +28°C° 0 mm 1 m/s 733 mmHg 40%

    Amanhã, 16 Outubro, Quarta-feira

    Tempo Temperatura Precipitação Vento Pressão Humidade
    00:00 +27°C° 0 mm 2 m/s 732 mmHg 42%
    01:00 +27°C° 0 mm 2 m/s 732 mmHg 45%
    02:00 +26°C° 0 mm 3 m/s 732 mmHg 47%
    03:00 +26°C° 0 mm 2 m/s 732 mmHg 49%
    04:00 +25°C° 0 mm 2 m/s 732 mmHg 51%
    05:00 +25°C° 0 mm 2 m/s 732 mmHg 52%
    06:00 +27°C° 0 mm 2 m/s 732 mmHg 48%
    07:00 +29°C° 0 mm 2 m/s 733 mmHg 43%
    08:00 +30°C° 0 mm 2 m/s 733 mmHg 38%
    09:00 +32°C° 0 mm 2 m/s 733 mmHg 34%
    10:00 +35°C° 0 mm 3 m/s 733 mmHg 29%
    11:00 +37°C° 0 mm 3 m/s 733 mmHg 25%
    12:00 +37°C° 0 mm 3 m/s 733 mmHg 27%
    13:00 +37°C° 0 mm 4 m/s 732 mmHg 28%
    14:00 +37°C° 0 mm 4 m/s 732 mmHg 30%
    15:00 +36°C° 0 mm 4 m/s 732 mmHg 33%
    16:00 +34°C° 0 mm 3 m/s 732 mmHg 37%
    17:00 +33°C° 0 mm 3 m/s 732 mmHg 41%
    18:00 +31°C° 0 mm 3 m/s 732 mmHg 43%
    19:00 +30°C° 0 mm 3 m/s 732 mmHg 45%
    20:00 +29°C° 0 mm 3 m/s 733 mmHg 47%
    21:00 +28°C° 0 mm 3 m/s 733 mmHg 48%
    22:00 +28°C° 0 mm 2 m/s 733 mmHg 48%
    23:00 +27°C° 0 mm 2 m/s 733 mmHg 49%

    Depois de amanhã, 17 Outubro, Quinta-feira

    Tempo Temperatura Precipitação Vento Pressão Humidade
    00:00 +27°C° 0 mm 2 m/s 733 mmHg 51%
    01:00 +26°C° 0 mm 2 m/s 733 mmHg 52%
    02:00 +26°C° 0 mm 2 m/s 732 mmHg 54%
    03:00 +26°C° 0 mm 2 m/s 733 mmHg 55%
    04:00 +25°C° 0 mm 2 m/s 733 mmHg 56%
    05:00 +25°C° 0 mm 2 m/s 733 mmHg 57%
    06:00 +27°C° 0 mm 3 m/s 733 mmHg 50%
    07:00 +28°C° 0 mm 3 m/s 733 mmHg 43%
    08:00 +30°C° 0 mm 3 m/s 734 mmHg 36%
    09:00 +33°C° 0 mm 3 m/s 734 mmHg 32%
    10:00 +34°C° 0 mm 3 m/s 734 mmHg 29%
    11:00 +36°C° 0 mm 3 m/s 734 mmHg 26%
    12:00 +36°C° 0 mm 4 m/s 733 mmHg 25%
    13:00 +37°C° 0 mm 4 m/s 733 mmHg 25%
    14:00 +37°C° 0 mm 5 m/s 732 mmHg 25%
    15:00 +36°C° 0 mm 4 m/s 732 mmHg 29%
    16:00 +34°C° 0 mm 4 m/s 732 mmHg 32%
    17:00 +33°C° 0 mm 4 m/s 732 mmHg 36%
    18:00 +30°C° 0 mm 4 m/s 733 mmHg 38%
    19:00 +29°C° 0 mm 3 m/s 733 mmHg 40%
    20:00 +27°C° 0 mm 3 m/s 733 mmHg 41%
    21:00 +27°C° 0 mm 3 m/s 733 mmHg 39%
    22:00 +27°C° 0 mm 3 m/s 733 mmHg 37%
    23:00 +26°C° 0 mm 3 m/s 733 mmHg 35%

    18 Outubro, Sexta-feira

    Tempo Temperatura Precipitação Vento Pressão Humidade
    00:00 +26°C° 0 mm 3 m/s 733 mmHg 40%
    01:00 +25°C° 0 mm 3 m/s 733 mmHg 45%
    02:00 +25°C° 0 mm 2 m/s 733 mmHg 49%
    03:00 +24°C° 0 mm 2 m/s 733 mmHg 50%
    04:00 +24°C° 0 mm 2 m/s 733 mmHg 50%
    05:00 +23°C° 0 mm 2 m/s 733 mmHg 51%
    06:00 +25°C° 0 mm 2 m/s 733 mmHg 45%
    07:00 +27°C° 0 mm 2 m/s 734 mmHg 40%
    08:00 +29°C° 0 mm 2 m/s 734 mmHg 34%
    09:00 +31°C° 0 mm 3 m/s 734 mmHg 30%
    10:00 +34°C° 0 mm 3 m/s 734 mmHg 26%
    11:00 +36°C° 0 mm 4 m/s 734 mmHg 22%
    12:00 +36°C° 0 mm 4 m/s 733 mmHg 21%
    13:00 +37°C° 0 mm 5 m/s 733 mmHg 20%
    14:00 +37°C° 0 mm 5 m/s 732 mmHg 19%
    15:00 +35°C° 0 mm 5 m/s 732 mmHg 22%
    16:00 +34°C° 0 mm 5 m/s 732 mmHg 24%
    17:00 +32°C° 0 mm 4 m/s 732 mmHg 27%
    18:00 +29°C° 0 mm 4 m/s 732 mmHg 28%
    19:00 +28°C° 0 mm 3 m/s 732 mmHg 28%
    20:00 +26°C° 0 mm 3 m/s 732 mmHg 29%
    21:00 +26°C° 0 mm 3 m/s 733 mmHg 29%
    22:00 +26°C° 0 mm 3 m/s 733 mmHg 30%
    23:00 +26°C° 0 mm 3 m/s 733 mmHg 30%

    19 Outubro, Sábado

    Tempo Temperatura Precipitação Vento Pressão Humidade
    00:00 +25°C° 0 mm 3 m/s 733 mmHg 31%
    01:00 +25°C° 0 mm 3 m/s 732 mmHg 31%
    02:00 +25°C° 0 mm 3 m/s 732 mmHg 31%
    03:00 +24°C° 0 mm 3 m/s 732 mmHg 31%
    04:00 +24°C° 0 mm 3 m/s 732 mmHg 31%
    05:00 +24°C° 0 mm 2 m/s 733 mmHg 31%
    06:00 +26°C° 0 mm 3 m/s 733 mmHg 28%
    07:00 +28°C° 0 mm 3 m/s 734 mmHg 25%
    08:00 +30°C° 0 mm 3 m/s 734 mmHg 21%
    09:00 +33°C° 0 mm 4 m/s 734 mmHg 19%
    10:00 +35°C° 0 mm 4 m/s 734 mmHg 17%
    11:00 +36°C° 0 mm 5 m/s 734 mmHg 15%
    12:00 +37°C° 0 mm 5 m/s 734 mmHg 15%
    13:00 +38°C° 0 mm 6 m/s 733 mmHg 15%
    14:00 +39°C° 0 mm 6 m/s 733 mmHg 15%
    15:00 +36°C° 0 mm 6 m/s 733 mmHg 17%
    16:00 +35°C° 0 mm 5 m/s 733 mmHg 19%
    17:00 +33°C° 0 mm 5 m/s 733 mmHg 21%
    18:00 +30°C° 0 mm 5 m/s 733 mmHg 24%
    19:00 +29°C° 0 mm 5 m/s 733 mmHg 28%
    20:00 +28°C° 0 mm 5 m/s 734 mmHg 31%
    21:00 +27°C° 0 mm 5 m/s 734 mmHg 33%
    22:00 +27°C° 0 mm 5 m/s 734 mmHg 35%
    23:00 +27°C° 0 mm 5 m/s 734 mmHg 36%

    20 Outubro, Domingo

    Tempo Temperatura Precipitação Vento Pressão Humidade
    00:00 +26°C° 0 mm 4 m/s 734 mmHg 37%
    01:00 +26°C° 0 mm 4 m/s 734 mmHg 38%
    02:00 +25°C° 0 mm 4 m/s 734 mmHg 39%
    03:00 +25°C° 0 mm 3 m/s 734 mmHg 39%
    04:00 +25°C° 0 mm 3 m/s 734 mmHg 39%
    05:00 +25°C° 0 mm 3 m/s 734 mmHg 38%
    06:00 +27°C° 0 mm 3 m/s 734 mmHg 32%
    07:00 +29°C° 0 mm 4 m/s 735 mmHg 26%
    08:00 +33°C° 0 mm 4 m/s 735 mmHg 21%
    09:00 +34°C° 0 mm 5 m/s 735 mmHg 19%
    10:00 +35°C° 0 mm 6 m/s 735 mmHg 17%
    11:00 +38°C° 0 mm 7 m/s 735 mmHg 15%
    12:00 +38°C° 0 mm 7 m/s 735 mmHg 15%
    13:00 +38°C° 0 mm 8 m/s 734 mmHg 14%
    14:00 +38°C° 0 mm 8 m/s 733 mmHg 14%
    15:00 +36°C° 0 mm 7 m/s 733 mmHg 15%
    16:00 +34°C° 0 mm 6 m/s 733 mmHg 16%
    17:00 +32°C° 0 mm 6 m/s 733 mmHg 17%
    18:00 +30°C° 0 mm 5 m/s 734 mmHg 19%
    19:00 +29°C° 0 mm 5 m/s 734 mmHg 21%
    20:00 +27°C° 0 mm 5 m/s 734 mmHg 24%
    21:00 +27°C° 0 mm 5 m/s 734 mmHg 26%
    22:00 +26°C° 0 mm 5 m/s 734 mmHg 29%
    23:00 +26°C° 0 mm 5 m/s 734 mmHg 32%
    Mostrar mais